Orbital Elements at Epoch 2459200.5 (2020-Dec-17.0) TDB
Reference: JPL 12 (heliocentric ecliptic J2000)
Element | Value | Uncertainty (1-sigma) | Units |
e | .1775906980859969 | 4.2788e-08 | |
a | 2.406099220858526 | 1.635e-08 | au |
q | 1.978798380562087 | 1.0354e-07 | au |
i | 3.301485128105641 | 4.9552e-06 | deg |
node | 118.6913256630766 | 8.4286e-05 | deg |
peri | 265.8097909612476 | 8.6083e-05 | deg |
M | 263.6126108806375 | 2.1548e-05 | deg |
tp | 2459565.494601780085 (2021-Dec-16.99460178) | 8.4415e-05 | TDB |
period | 1363.228715305406 3.73 | 1.3895e-05 3.804e-08 | d yr |
n | .2640789443166539 | 2.6917e-09 | deg/d |
Q | 2.833400061154965 | 1.9253e-08 | au |
|
| | Orbit Determination Parameters
Additional Information
|